Date,TemperatureHighF,TemperatureAvgF,TemperatureLowF,DewpointHighF,DewpointAvgF,DewpointLowF,HumidityHigh,HumidityAvg,HumidityLow,PressureMaxIn,PressureMinIn,WindSpeedMaxMPH,WindSpeedAvgMPH,GustSpeedMaxMPH,PrecipitationSumIn
2013-2-1,64.0,54.8,48.0,-99.9,-99.9,-99.9,0,0,100,30.25,30.13,9,-248,15,0.00
2013-2-2,52.0,49.9,48.0,-99.9,-99.9,-99.9,0,0,100,30.32,30.24,18,1,22,0.00
2013-2-3,54.0,50.4,49.0,-99.9,-99.9,-99.9,0,0,100,30.27,30.17,22,13,27,0.00
2013-2-4,49.0,48.7,48.0,-99.9,-99.9,-99.9,0,0,100,30.19,30.10,18,11,22,0.00
2013-2-5,52.0,50.0,48.0,-99.9,-99.9,-99.9,0,0,100,30.18,30.09,22,14,28,0.00
2013-2-6,51.0,49.8,48.0,-99.9,-99.9,-99.9,0,0,100,30.22,30.16,22,13,27,0.00
2013-2-7,52.0,49.5,45.0,-99.9,-99.9,-99.9,0,0,100,30.18,30.01,26,0,30,0.00
2013-2-8,50.0,47.1,42.0,-99.9,-99.9,-99.9,0,0,100,30.04,29.96,28,13,36,0.00
2013-2-9,53.0,48.2,45.0,-99.9,-99.9,-99.9,0,0,100,30.11,30.02,18,-48,23,0.00
2013-2-10,53.0,47.9,44.0,-99.9,-99.9,-99.9,0,0,100,30.13,30.05,16,-198,19,0.00
2013-2-11,59.0,51.6,47.0,-99.9,-99.9,-99.9,0,0,100,30.25,30.09,16,-34,19,0.00
2013-2-12,51.0,48.8,47.0,-99.9,-99.9,-99.9,0,0,100,30.38,30.24,11,-1,15,0.00
2013-2-13,51.0,48.4,45.0,-99.9,-99.9,-99.9,0,0,100,30.37,30.24,13,-9,16,0.00
2013-2-14,62.0,50.9,45.0,-99.9,-99.9,-99.9,0,0,100,30.26,30.19,7,-164,9,0.00
2013-2-15,68.0,59.5,51.0,-99.9,-99.9,-99.9,0,0,100,30.27,30.20,13,-191,15,0.00
2013-2-16,63.0,54.7,49.0,-99.9,-99.9,-99.9,0,0,100,30.24,30.07,29,-15,34,0.00
2013-2-17,51.0,49.9,49.0,-99.9,-99.9,-99.9,0,0,100,30.08,30.00,29,22,35,0.00
2013-2-18,49.0,48.4,47.0,-99.9,-99.9,-99.9,0,0,100,30.06,29.98,24,18,30,0.00
2013-2-19,50.0,46.8,44.0,-99.9,-99.9,-99.9,0,0,100,29.99,29.79,28,17,37,0.00
2013-2-20,50.0,47.9,45.0,-99.9,-99.9,-99.9,0,0,100,30.09,29.86,35,26,43,0.00
2013-2-21,50.0,48.8,47.0,-99.9,-99.9,-99.9,0,0,100,30.20,30.08,33,21,39,0.00
2013-2-22,51.0,49.2,46.0,-99.9,-99.9,-99.9,0,0,100,30.29,30.19,25,16,31,0.00
2013-2-23,51.0,48.8,48.0,-99.9,-99.9,-99.9,0,0,100,30.29,30.20,38,24,43,0.00
2013-2-24,50.0,48.1,44.0,-99.9,-99.9,-99.9,0,0,100,30.28,30.19,24,16,29,0.00
2013-2-25,51.0,49.2,48.0,-99.9,-99.9,-99.9,0,0,100,30.29,30.21,29,21,34,0.00
2013-2-26,53.0,48.9,45.0,-99.9,-99.9,-99.9,0,0,100,30.24,30.18,27,16,31,0.00
2013-2-27,53.0,49.2,47.0,-99.9,-99.9,-99.9,0,0,100,30.39,30.22,26,16,30,0.00
2013-2-28,52.0,50.1,49.0,-99.9,-99.9,-99.9,0,0,100,30.48,30.38,21,15,28,0.00